Regional Weather Roundup
Issued by NWS

Home | Current Version | Previous Version | Text Only | Print | Product List | Glossary Off
Versions: 1 2 3 4 5 6 7 8 9 10 11 12 13 14 15 16 17 18 19 20 21 22 23 24 25 26 27 28 29 30 31 32 33 34 35 36 37 38 39 40 41 42 43 44 45 46 47 48 49 50

059
ASUS43 KMKX 290200
RWRWI

WISCONSIN REGIONAL WEATHER ROUNDUP
NATIONAL WEATHER SERVICE MILWAUKEE/SULLIVAN WI
900 PM CDT WED SEP 28 2016

NOTE: "FAIR" INDICATES FEW OR NO CLOUDS BELOW 12,000 FEET WITH NO
SIGNIFICANT WEATHER AND/OR OBSTRUCTIONS TO VISIBILITY.

WIZ001-002-006>008-014>016-023>028-290300-
NORTHWEST WISCONSIN

CITY           SKY/WX    TMP DP  RH WIND       PRES   REMARKS
SUPERIOR ARPT  CLOUDY    53  50  92 NE3       30.37R
ASHLAND        CLOUDY    54  50  86 E9        30.37R
HAYWARD        CLOUDY    53  48  83 N13       30.36R
SIREN          CLOUDY    55  48  77 NE3       30.36R
CUMBERLAND     CLOUDY    54  46  76 N8        30.34R
RICE LAKE      MOCLDY    55  48  79 N7        30.34R
CHETEK         NOT AVBL
LADYSMITH      MOCLDY    53  51  92 N9        30.34R
EAU CLAIRE     PTCLDY    55  50  83 N9        30.30R
MENOMONIE      MOCLDY    57  50  77 N12G18    30.31R
NEW RICHMOND   PTCLDY    54  47  78 NE6       30.34R
OSCEOLA        CLEAR     55  49  80 N5        30.36R
$$

WIZ003>005-009-010-017-018-290300-
NORTH CENTRAL WISCONSIN

CITY           SKY/WX    TMP DP  RH WIND       PRES   REMARKS
MANITOWISH WTR NOT AVBL
ARBOR VITAE    MOCLDY    55  52  92 CALM      30.32R
WOODRUFF       MOCLDY    55  52  92 CALM      30.32R
RHINELANDER    CLOUDY    53  52  96 N7        30.32R
EAGLE RIVER    CLOUDY    52  51  96 NE9       30.32R
LAND O LAKES   CLOUDY    53  49  88 NE7       30.34R
PHILLIPS       CLOUDY    54  53  97 N7        30.31R
TOMAHAWK       CLOUDY    53  49  87 N5        30.30R
MEDFORD        PTCLDY    52  52 100 N8        30.28R
MERRILL        CLEAR     53  51  94 N8        30.29R
$$

WIZ029-030-035-036-043>047-290300-
CENTRAL WISCONSIN

CITY           SKY/WX    TMP DP  RH WIND       PRES   REMARKS
WAUSAU         CLEAR     54  49  83 N5        30.27R
MOSINEE        PTCLDY    54  48  82 N7        30.27R
MARSHFIELD     PTCLDY    56  48  74 N8        30.26R
STEVENS POINT  PTCLDY    49  47  90 CALM      30.26R
WAUPACA        CLEAR     53  52  94 CALM      30.24R
WAUTOMA        CLEAR     53  49  86 N3        30.24R
WISC RAPIDS    PTCLDY    51  49  92 N5        30.27R
CAMP DOUGLAS   NOT AVBL
$$

WIZ011>013-019>022-031-037>040-048>050-290300-
NORTHEAST WISCONSIN

CITY           SKY/WX    TMP DP  RH WIND       PRES   REMARKS
ANTIGO         CLEAR     50  49  94 CALM      30.28R
SHAWANO        MOCLDY    59  53  79 NE12      30.26R
OCONTO         NOT AVBL
STURGEON BAY   CLEAR     58  55  90 N10       30.24R
GREEN BAY      CLEAR     54  54 100 N10       30.23R
MANITOWOC      NOT AVBL
APPLETON       PTCLDY    54  48  82 N9        30.21R
CLINTONVILLE   CLEAR     50  46  87 N3        30.24R
OSHKOSH        CLEAR     56  51  84 N10       30.21R
$$

WIZ032>034-041-042-053>061-290300-
SOUTHWEST WISCONSIN

CITY           SKY/WX    TMP DP  RH WIND       PRES   REMARKS
LA CROSSE      PTCLDY    57  52  83 N5        30.25R
SPARTA         CLEAR     50  49  98 N3        30.26R
VIROQUA        CLEAR     52  50  93 N5        30.24R
BOSCOBEL       CLEAR     54  51  90 E3        30.23R
PRAIRIE DU CHI CLEAR     57  48  72 CALM      30.22R
PLATTEVILLE    CLEAR     53  51  92 N8        30.20R
$$

WIZ056-057-062-063-064-067-068-290300-
SOUTH CENTRAL WISCONSIN

CITY           SKY/WX    TMP DP  RH WIND       PRES   REMARKS
REEDSBURG      NOT AVBL
BARABOO/DELLS  CLEAR     54  48  82 N3        30.22R
LONE ROCK      NOT AVBL
MINERAL POINT  CLEAR     54  50  87 N7        30.21R
MADISON        CLEAR     52  49  89 N7        30.20R
MIDDLETON      CLEAR     55  53  94 N7        30.21R
WATERTOWN      PTCLDY    54  50  85 N6        30.17R
MONROE         CLEAR     54  50  87 N10       30.17R
JANESVILLE     CLEAR     57  48  72 N8        30.15R
$$

WIZ051-052-058>065-066-070>072-290300-
SOUTHEAST WISCONSIN

CITY           SKY/WX    TMP DP  RH WIND       PRES   REMARKS
MILWAUKEE      MOCLDY    62  51  67 N24G32    30.12R
WAUKESHA       PTCLDY    54  48  82 N9        30.15S
MILWAUKEE/TIMM PTCLDY    57  48  72 N9        30.14S
RACINE         CLOUDY    58  52  80 N20G29    30.12S
BURLINGTON     CLOUDY    54  47  77 N7        30.13S
KENOSHA        HVY RAIN  57  54  89 N9G21     30.10F FOG
FOND DU LAC    CLEAR     57  50  77 N13       30.20R
SHEBOYGAN      CLEAR     56  52  86 N12       30.17R
WEST BEND      PTCLDY    55  50  82 N12G17    30.15S
JUNEAU         CLEAR     53  48  83 N7        30.20R
$$

LSZ147-162-290300-
LAKE SUPERIOR

STATION/POSITION TIME  TEMP    WIND        PRES    WAVE
                       AIR SEA DIR/SP/G            HT/PER
                 (UTC) (F)     (DEG/KT/KT) (MB)    (FT/S)
W MID LAKE BUOY  0050   55 54   50/  6/  6 1027.2R   2/ 6
DEVILS ISLAND    0100   55      50/  6/  6 1028.2R
PORT WING        0140   55      40/  7/  7 1028.1
SAXON HARBOR     0100   56      30/  9/ 10 1027.4R
$$

LMZ867-665-643>646-290300-
LAKE MICHIGAN

STATION/POSITION TIME  TEMP    WIND        PRES    WAVE
                       AIR SEA DIR/SP/G            HT/PER
                 (UTC) (F)     (DEG/KT/KT) (MB)    (FT/S)
CHAMBERS ISLAND  0100   61     350/ 17/ 22 1023.0R
S GREEN BAY BUOY 0100   62 62   50/ 14/ 16 1022.5
N MID LAKE BUOY  0050   64 66   20/ 17/ 19 1022.3R   3/ 4
NORTHPORT PIER   0100   62      10/ 16/ 19 1023.4R
SISTER BAY       0008   59      30/  5/  7   N/A
KEWAUNEE LAKESHO 0100   58     350/  8/ 12 1021.9R
SHEBOYGAN LAKESH 0100   58     350/ 17/ 18 1020.8R
PORT WASHINGTON  0140   59     350/  8/ 14 1021.0S
ATWATER BUOY     0100   57 54  360/ 17/ 21 1019.4R
MILWAUKEE LAKESH 0110   60     350/ 17/ 22   N/A
S MID LAKE BUOY  0050   65 69   60/ 25/ 31 1016.6R   5/ 5
KENOSHA   LAKESH 0100   58      10/ 15/ 21 1019.3R
$$

TC  - TEMPERATURE IN CELSIUS
VSB - VISIBILITY IN STATUTE MILES
WCI - WIND CHILL INDEX
HX  - HEAT INDEX





USA.gov is the U.S. government's official web portal to all federal, state and local government web resources and services.